This demonstration page uses our WeatherBlox Daily Observations layout. Learn more.

Left ArrowRight Arrow

34.74481, -87.66753

Hourly Observations for October 21, 2019

Temp ( °F °C ) Dew Point ( °F °C ) Humidity (%) Winds ( mph kmh ) Pressure ( in mb ) Visibility ( mi km ) Precip ( " mm )
12:53 am 00:53 Cloudy 66 18.9 59 15 78 78 ESE 6 9 29.87 1012 10 16 0.00 0.00
1:53 am 01:53 Partly Cloudy 66 18.9 60 15.6 81 81 SE 7 11 29.84 1011 10 16 0.00 0.00
2:53 am 02:53 Clear 67 19.4 60 15.6 79 79 SE 8 13 29.82 1010 10 16 0.00 0.00
3:53 am 03:53 Clear 67 19.4 60 15.6 79 79 S 7 11 29.81 1010 10 16 0.00 0.00
4:53 am 04:53 Clear 69 20.6 61 16.1 76 76 S 8 13 29.81 1010 10 16 0.00 0.00
5:53 am 05:53 Clear 68 20 61 16.1 78 78 S 7 11 29.81 1010 10 16 0.00 0.00
6:53 am 06:53 Clear 68 20 62 16.7 81 81 S 10 17 29.82 1010 10 16 0.00 0.00
7:53 am 07:53 Mostly Cloudy 69 20.6 63 17.2 81 81 S 10 17 29.82 1010 10 16 0.00 0.00
8:53 am 08:53 Cloudy 70 21.1 64 17.8 82 82 SSW 13 20 29.84 1011 10 16 0.00 0.00
9:40 am 09:40 Cloudy 71 21.7 65 18.3 81 81 SW 10 17 29.85 1011 10 16 0.00 0.00
9:53 am 09:53 Cloudy with Light Rain 71 21.7 65 18.3 81 81 SSW 8 13 29.86 1011 10 16 0.00 0.00
10:33 am 10:33 Cloudy 71 21.7 67 19.4 87 87 SSW 8 13 29.85 1011 10 16 0.05 1.27
10:53 am 10:53 Cloudy 71 21.7 67 19.4 87 87 S 8 13 29.87 1012 10 16 0.05 1.27
11:53 am 11:53 Cloudy 71 21.7 67 19.4 87 87 S 8 13 29.87 1012 10 16 0.00 0.00
12:39 pm 12:39 Cloudy with Light Rain 68 20 60 15.6 76 76 NNW 10 17 29.85 1011 10 16 0.00 0.00
12:48 pm 12:48 Cloudy with Heavy Rain 66 19 61 16 83 83 W 14 22 29.88 1012 2 3 0.13 3.30
12:53 pm 12:53 Cloudy with Rain 65 18.3 61 16.1 87 87 W 15 24 29.90 1012 2 2 0.15 3.81
12:58 pm 12:58 Cloudy with Heavy Rain 65 18.3 61 16.1 87 87 W 13 20 29.88 1012 3 5 0.03 0.76
1:53 pm 13:53 Cloudy with Rain 65 18.3 62 16.7 90 90 S 7 11 29.88 1012 6 10 0.12 3.05
2:44 pm 14:44 Cloudy with Heavy Rain 64 17.8 61 16.1 90 90 SSW 8 13 29.85 1011 3 4 0.12 3.05
2:53 pm 14:53 Cloudy with Rain 64 17.8 61 16.1 90 90 S 6 9 29.86 1011 4 6 0.14 3.56
3:53 pm 15:53 Cloudy with Rain 64 17.8 61 16.1 90 90 SSE 9 15 29.84 1011 6 10 0.07 1.78
4:53 pm 16:53 Cloudy with Light Rain 64 17.8 62 16.7 93 93 SSE 6 9 29.82 1010 7 11 0.08 2.03
5:18 pm 17:18 Cloudy with Light Rain 64 17.8 62 16.7 93 93 SSE 8 13 29.83 1010 10 16 0.02 0.51
5:53 pm 17:53 Cloudy with Light Rain 64 17.8 61 16.1 90 90 S 3 6 29.83 1010 8 13 0.02 0.51
6:04 pm 18:04 Cloudy with Heavy Rain 64 17.8 61 16.1 90 90 S 5 7 29.83 1010 2 3 0.10 2.54
6:09 pm 18:09 Cloudy with Light Rain 64 17.8 62 16.7 93 93 S 6 9 29.83 1010 3 5 0.11 2.79
6:53 pm 18:53 Cloudy with Rain 64 17.8 62 16.7 93 93 S 5 7 29.83 1010 6 10 0.12 3.05
7:09 pm 19:09 Cloudy with Light Rain 64 17.8 62 16.7 93 93 Calm 29.83 1010 4 6 0.04 1.02
7:18 pm 19:18 Cloudy with Light Rain 64 17.8 62 16.7 93 93 S 3 6 29.83 1010 7 11 0.04 1.02
7:42 pm 19:42 Cloudy 64 17.8 62 16.7 93 93 Calm 29.83 1010 10 16 0.04 1.02
7:46 pm 19:46 Cloudy 64 17.8 62 16.7 93 93 S 3 6 29.83 1010 10 16 0.04 1.02
7:53 pm 19:53 Cloudy 64 17.8 62 16.7 93 93 S 3 6 29.85 1011 10 16 0.04 1.02
8:04 pm 20:04 Cloudy 64 17.8 62 16.7 93 93 SSW 3 6 29.85 1011 10 16 0.00 0.00
8:28 pm 20:28 Cloudy 64 17.8 62 16.7 93 93 Calm 29.85 1011 10 16 0.00 0.00
8:51 pm 20:51 Cloudy 64 18 63 17 94 94 W 3 6 29.85 1011 9 14 0.01 0.25
8:53 pm 20:53 Cloudy with Light Rain 64 17.8 62 16.7 93 93 W 3 6 29.87 1011 9 14 0.01 0.25
9:22 pm 21:22 Cloudy 64 17.8 62 16.7 93 93 WSW 5 7 29.85 1011 9 14 0.00 0.00
9:38 pm 21:38 Cloudy 64 17.8 62 16.7 93 93 WSW 3 6 29.88 1012 9 14 0.00 0.00
9:53 pm 21:53 Cloudy 64 17.8 62 16.7 93 93 W 6 9 29.89 1012 10 16 0.00 0.00
10:18 pm 22:18 Cloudy 64 17.8 62 16.7 93 93 W 7 11 29.88 1012 10 16 0.00 0.00
10:30 pm 22:30 Cloudy 64 17.8 62 16.7 93 93 WNW 8 13 29.88 1012 10 16 0.00 0.00
10:53 pm 22:53 Cloudy 64 17.8 61 16.1 90 90 W 7 11 29.89 1012 10 16 0.00 0.00
11:03 pm 23:03 Cloudy 64 17.8 61 16.1 90 90 W 7 11 29.88 1012 10 16 0.00 0.00
11:15 pm 23:15 Cloudy 64 17.8 62 16.7 93 93 WNW 3 6 29.88 1012 10 16 0.00 0.00
11:53 pm 23:53 Cloudy 64 17.8 61 16.1 90 90 W 6 9 29.88 1012 10 16 0.00 0.00

Powered by AerisWeather